Time,TemperatureF,DewpointF,PressureIn,WindDirection,WindDirectionDegrees,WindSpeedMPH,WindSpeedGustMPH,Humidity,HourlyPrecipIn,Conditions,Clouds,dailyrainin,SolarRadiationWatts/m^2,SoftwareType,DateUTC
2013-05-08 00:02:00,68.0,61.0,-100.00,North,3,4.0,6.0,79,0.00,,,0.00,0.000000,,2013-05-08 10:02:00,
2013-05-08 00:12:00,68.0,61.0,-100.00,North,3,4.0,6.0,79,0.00,,,0.00,0.000000,,2013-05-08 10:12:00,
2013-05-08 00:22:00,68.0,61.0,-100.00,North,3,4.0,6.0,79,0.00,,,0.00,0.000000,,2013-05-08 10:22:00,
2013-05-08 00:33:00,68.0,61.0,-100.00,North,3,4.0,6.0,79,0.00,,,0.00,0.000000,,2013-05-08 10:33:00,
2013-05-08 01:02:00,67.0,60.0,-100.00,North,3,5.0,7.0,77,0.00,,,-99.99,0.000000,,2013-05-08 11:02:00,
2013-05-08 01:11:00,67.0,60.0,-100.00,North,3,5.0,7.0,77,0.00,,,-99.99,0.000000,,2013-05-08 11:11:00,
2013-05-08 01:22:00,67.0,60.0,-100.00,North,3,5.0,7.0,77,0.00,,,-99.99,0.000000,,2013-05-08 11:22:00,
2013-05-08 01:32:00,67.0,60.0,-100.00,North,3,5.0,7.0,77,0.00,,,-99.99,0.000000,,2013-05-08 11:32:00,
2013-05-08 02:01:00,67.0,57.0,-100.00,North,3,6.0,9.0,71,0.00,,,0.00,0.000000,,2013-05-08 12:01:00,
2013-05-08 02:11:00,67.0,57.0,-100.00,North,3,6.0,9.0,71,0.00,,,0.00,0.000000,,2013-05-08 12:11:00,
2013-05-08 02:21:00,67.0,57.0,-100.00,North,3,6.0,9.0,71,0.00,,,0.00,0.000000,,2013-05-08 12:21:00,
2013-05-08 02:31:00,67.0,57.0,-100.00,North,3,6.0,9.0,71,0.00,,,0.00,0.000000,,2013-05-08 12:31:00,
2013-05-08 03:01:00,66.0,56.0,-100.00,North,1,6.0,8.0,70,0.00,,,0.00,0.000000,,2013-05-08 13:01:00,
2013-05-08 03:11:00,66.0,56.0,-100.00,North,1,6.0,8.0,70,0.00,,,0.00,0.000000,,2013-05-08 13:11:00,
2013-05-08 03:21:00,66.0,56.0,-100.00,North,1,6.0,8.0,70,0.00,,,0.00,0.000000,,2013-05-08 13:21:00,
2013-05-08 03:32:00,66.0,56.0,-100.00,North,1,6.0,8.0,70,0.00,,,0.00,0.000000,,2013-05-08 13:32:00,
2013-05-08 04:02:00,66.0,56.0,-100.00,North,8,6.0,9.0,70,0.00,,,0.00,0.000000,,2013-05-08 14:02:00,
2013-05-08 04:11:00,66.0,56.0,-100.00,North,8,6.0,9.0,70,0.00,,,0.00,0.000000,,2013-05-08 14:11:00,
2013-05-08 04:21:00,66.0,56.0,-100.00,North,8,6.0,9.0,70,0.00,,,0.00,0.000000,,2013-05-08 14:21:00,
2013-05-08 04:31:00,66.0,56.0,-100.00,North,8,6.0,9.0,70,0.00,,,0.00,0.000000,,2013-05-08 14:31:00,
2013-05-08 05:01:00,67.0,56.0,-100.00,North,2,6.0,8.0,69,0.00,,,0.00,0.000000,,2013-05-08 15:01:00,
2013-05-08 05:11:00,67.0,56.0,-100.00,North,2,6.0,8.0,69,0.00,,,0.00,0.000000,,2013-05-08 15:11:00,
2013-05-08 05:21:00,67.0,56.0,-100.00,North,2,6.0,8.0,69,0.00,,,0.00,0.000000,,2013-05-08 15:21:00,
2013-05-08 05:32:00,67.0,56.0,-100.00,North,2,6.0,8.0,69,0.00,,,0.00,0.000000,,2013-05-08 15:32:00,
2013-05-08 06:03:00,67.0,56.0,-100.00,NE,53,3.0,6.0,69,0.00,,,-99.99,0.000000,,2013-05-08 16:03:00,
2013-05-08 06:12:00,67.0,56.0,-100.00,NE,53,3.0,6.0,69,0.00,,,-99.99,0.000000,,2013-05-08 16:12:00,
2013-05-08 06:23:00,67.0,56.0,-100.00,NE,53,3.0,6.0,69,0.00,,,-99.99,0.000000,,2013-05-08 16:23:00,
2013-05-08 06:33:00,67.0,56.0,-100.00,NE,53,3.0,6.0,69,0.00,,,-99.99,0.000000,,2013-05-08 16:33:00,
2013-05-08 07:02:00,68.0,57.0,-100.00,North,11,2.0,5.0,69,0.00,,,-99.99,9.000000,,2013-05-08 17:02:00,
2013-05-08 07:11:00,68.0,57.0,-100.00,North,11,2.0,5.0,69,0.00,,,-99.99,9.000000,,2013-05-08 17:11:00,
2013-05-08 07:22:00,68.0,57.0,-100.00,North,11,2.0,5.0,69,0.00,,,-99.99,9.000000,,2013-05-08 17:22:00,
2013-05-08 07:31:00,68.0,57.0,-100.00,North,11,2.0,5.0,69,0.00,,,-99.99,9.000000,,2013-05-08 17:31:00,
2013-05-08 08:02:00,76.0,62.0,-100.00,East,100,4.0,6.0,62,0.00,,,0.00,217.000000,,2013-05-08 18:02:00,
2013-05-08 08:11:00,76.0,62.0,-100.00,East,100,4.0,6.0,62,0.00,,,0.00,217.000000,,2013-05-08 18:11:00,
2013-05-08 08:21:00,76.0,62.0,-100.00,East,100,4.0,6.0,62,0.00,,,0.00,217.000000,,2013-05-08 18:21:00,
2013-05-08 08:31:00,76.0,62.0,-100.00,East,100,4.0,6.0,62,0.00,,,0.00,217.000000,,2013-05-08 18:31:00,
2013-05-08 09:01:00,79.0,61.0,-100.00,East,99,5.0,8.0,54,0.00,,,0.00,569.000000,,2013-05-08 19:01:00,
2013-05-08 09:11:00,79.0,61.0,-100.00,East,99,5.0,8.0,54,0.00,,,0.00,569.000000,,2013-05-08 19:11:00,
2013-05-08 09:21:00,79.0,61.0,-100.00,East,99,5.0,8.0,54,0.00,,,0.00,569.000000,,2013-05-08 19:21:00,
2013-05-08 09:31:00,79.0,61.0,-100.00,East,99,5.0,8.0,54,0.00,,,0.00,569.000000,,2013-05-08 19:31:00,
2013-05-08 10:02:00,78.0,66.0,-100.00,WSW,241,7.0,10.0,66,0.00,,,0.00,558.000000,,2013-05-08 20:02:00,
2013-05-08 10:11:00,78.0,66.0,-100.00,WSW,241,7.0,10.0,66,0.00,,,0.00,558.000000,,2013-05-08 20:11:00,
2013-05-08 10:22:00,78.0,66.0,-100.00,WSW,241,7.0,10.0,66,0.00,,,0.00,558.000000,,2013-05-08 20:22:00,
2013-05-08 10:32:00,78.0,66.0,-100.00,WSW,241,7.0,10.0,66,0.00,,,0.00,558.000000,,2013-05-08 20:32:00,
2013-05-08 11:01:00,84.0,68.0,-100.00,West,272,6.0,12.0,59,0.00,,,0.00,846.000000,,2013-05-08 21:01:00,
2013-05-08 11:11:00,84.0,68.0,-100.00,West,272,6.0,12.0,59,0.00,,,0.00,846.000000,,2013-05-08 21:11:00,
2013-05-08 11:21:00,84.0,68.0,-100.00,West,272,6.0,12.0,59,0.00,,,0.00,846.000000,,2013-05-08 21:21:00,
2013-05-08 11:32:00,84.0,68.0,-100.00,West,272,6.0,12.0,59,0.00,,,0.00,846.000000,,2013-05-08 21:32:00,
2013-05-08 12:02:00,85.0,68.0,-100.00,WSW,251,7.0,14.0,56,0.00,,,0.00,998.000000,,2013-05-08 22:02:00,
2013-05-08 12:12:00,85.0,68.0,-100.00,WSW,251,7.0,14.0,56,0.00,,,0.00,998.000000,,2013-05-08 22:12:00,
2013-05-08 12:22:00,85.0,68.0,-100.00,WSW,251,7.0,14.0,56,0.00,,,0.00,998.000000,,2013-05-08 22:22:00,
2013-05-08 12:33:00,85.0,68.0,-100.00,WSW,251,7.0,14.0,56,0.00,,,0.00,998.000000,,2013-05-08 22:33:00,
2013-05-08 13:01:00,82.0,64.0,-100.00,SW,230,9.0,15.0,54,0.00,,,0.00,1010.000000,,2013-05-08 23:01:00,
2013-05-08 13:11:00,82.0,64.0,-100.00,SW,230,9.0,15.0,54,0.00,,,0.00,1010.000000,,2013-05-08 23:11:00,
2013-05-08 13:22:00,82.0,64.0,-100.00,SW,230,9.0,15.0,54,0.00,,,0.00,1010.000000,,2013-05-08 23:22:00,
2013-05-08 13:32:00,82.0,64.0,-100.00,SW,230,9.0,15.0,54,0.00,,,0.00,1010.000000,,2013-05-08 23:32:00,
2013-05-08 14:02:00,81.0,62.0,-100.00,SW,228,8.0,15.0,53,0.00,,,0.00,1040.000000,,2013-05-09 00:02:00,
2013-05-08 14:11:00,81.0,62.0,-100.00,SW,228,8.0,15.0,53,0.00,,,0.00,1040.000000,,2013-05-09 00:11:00,
2013-05-08 14:21:00,81.0,62.0,-100.00,SW,228,8.0,15.0,53,0.00,,,0.00,1040.000000,,2013-05-09 00:21:00,
2013-05-08 14:32:00,81.0,62.0,-100.00,SW,228,8.0,15.0,53,0.00,,,0.00,1040.000000,,2013-05-09 00:32:00,
2013-05-08 15:01:00,79.0,64.0,-100.00,SW,232,10.0,14.0,61,0.00,,,0.00,444.000000,,2013-05-09 01:01:00,
2013-05-08 15:11:00,79.0,64.0,-100.00,SW,232,10.0,14.0,61,0.00,,,0.00,444.000000,,2013-05-09 01:11:00,
2013-05-08 15:22:00,79.0,64.0,-100.00,SW,232,10.0,14.0,61,0.00,,,0.00,444.000000,,2013-05-09 01:22:00,
2013-05-08 15:32:00,79.0,64.0,-100.00,SW,232,10.0,14.0,61,0.00,,,0.00,444.000000,,2013-05-09 01:32:00,
2013-05-08 16:02:00,81.0,64.0,-100.00,WSW,239,8.0,17.0,56,0.00,,,0.00,683.000000,,2013-05-09 02:02:00,
2013-05-08 16:11:00,81.0,64.0,-100.00,WSW,239,8.0,17.0,56,0.00,,,0.00,683.000000,,2013-05-09 02:11:00,
2013-05-08 16:21:00,81.0,64.0,-100.00,WSW,239,8.0,17.0,56,0.00,,,0.00,683.000000,,2013-05-09 02:21:00,
2013-05-08 16:32:00,81.0,64.0,-100.00,WSW,239,8.0,17.0,56,0.00,,,0.00,683.000000,,2013-05-09 02:32:00,
2013-05-08 17:01:00,84.0,65.0,-100.00,WSW,240,9.0,15.0,53,0.00,,,0.00,625.000000,,2013-05-09 03:01:00,
2013-05-08 17:11:00,84.0,65.0,-100.00,WSW,240,9.0,15.0,53,0.00,,,0.00,625.000000,,2013-05-09 03:11:00,
2013-05-08 17:21:00,84.0,65.0,-100.00,WSW,240,9.0,15.0,53,0.00,,,0.00,625.000000,,2013-05-09 03:21:00,
2013-05-08 17:32:00,84.0,65.0,-100.00,WSW,240,9.0,15.0,53,0.00,,,0.00,625.000000,,2013-05-09 03:32:00,
2013-05-08 18:03:00,81.0,63.0,-100.00,West,269,6.0,15.0,54,0.00,,,0.00,372.000000,,2013-05-09 04:03:00,
2013-05-08 18:12:00,81.0,63.0,-100.00,West,269,6.0,15.0,54,0.00,,,0.00,372.000000,,2013-05-09 04:12:00,
2013-05-08 18:23:00,81.0,63.0,-100.00,West,269,6.0,15.0,54,0.00,,,0.00,372.000000,,2013-05-09 04:23:00,
2013-05-08 18:32:00,81.0,63.0,-100.00,West,269,6.0,15.0,54,0.00,,,0.00,372.000000,,2013-05-09 04:32:00,
2013-05-08 19:02:00,75.0,62.0,-100.00,West,262,5.0,12.0,63,0.00,,,0.00,94.000000,,2013-05-09 05:02:00,
2013-05-08 19:12:00,75.0,62.0,-100.00,West,262,5.0,12.0,63,0.00,,,0.00,94.000000,,2013-05-09 05:12:00,
2013-05-08 19:22:00,75.0,62.0,-100.00,West,262,5.0,12.0,63,0.00,,,0.00,94.000000,,2013-05-09 05:22:00,
2013-05-08 19:32:00,75.0,62.0,-100.00,West,262,5.0,12.0,63,0.00,,,0.00,94.000000,,2013-05-09 05:32:00,
2013-05-08 20:01:00,72.0,62.0,-100.00,West,270,3.0,9.0,71,0.00,,,0.00,10.000000,,2013-05-09 06:01:00,
2013-05-08 20:11:00,72.0,62.0,-100.00,West,270,3.0,9.0,71,0.00,,,0.00,10.000000,,2013-05-09 06:11:00,
2013-05-08 20:21:00,72.0,62.0,-100.00,West,270,3.0,9.0,71,0.00,,,0.00,10.000000,,2013-05-09 06:21:00,
2013-05-08 20:32:00,72.0,62.0,-100.00,West,270,3.0,9.0,71,0.00,,,0.00,10.000000,,2013-05-09 06:32:00,
2013-05-08 21:01:00,72.0,64.0,-100.00,NNE,32,0.0,6.0,75,0.00,,,0.00,0.000000,,2013-05-09 07:01:00,
2013-05-08 21:12:00,72.0,64.0,-100.00,NNE,32,0.0,6.0,75,0.00,,,0.00,0.000000,,2013-05-09 07:12:00,
2013-05-08 21:21:00,72.0,64.0,-100.00,NNE,32,0.0,6.0,75,0.00,,,0.00,0.000000,,2013-05-09 07:21:00,
2013-05-08 21:31:00,72.0,64.0,-100.00,NNE,32,0.0,6.0,75,0.00,,,0.00,0.000000,,2013-05-09 07:31:00,
2013-05-08 22:02:00,70.0,64.0,-100.00,NE,37,2.0,6.0,80,0.00,,,0.00,0.000000,,2013-05-09 08:02:00,
2013-05-08 22:11:00,70.0,64.0,-100.00,NE,37,2.0,6.0,80,0.00,,,0.00,0.000000,,2013-05-09 08:11:00,
2013-05-08 22:21:00,70.0,64.0,-100.00,NE,37,2.0,6.0,80,0.00,,,0.00,0.000000,,2013-05-09 08:21:00,
2013-05-08 22:31:00,70.0,64.0,-100.00,NE,37,2.0,6.0,80,0.00,,,0.00,0.000000,,2013-05-09 08:31:00,
2013-05-08 23:02:00,69.0,63.0,-100.00,ENE,65,1.0,4.0,82,0.00,,,0.00,0.000000,,2013-05-09 09:02:00,
2013-05-08 23:11:00,69.0,63.0,-100.00,ENE,65,1.0,4.0,82,0.00,,,0.00,0.000000,,2013-05-09 09:11:00,
2013-05-08 23:21:00,69.0,63.0,-100.00,ENE,65,1.0,4.0,82,0.00,,,0.00,0.000000,,2013-05-09 09:21:00,
2013-05-08 23:32:00,69.0,63.0,-100.00,ENE,65,1.0,4.0,82,0.00,,,0.00,0.000000,,2013-05-09 09:32:00,